• In India
  • List of Countries
  • For 7 days
  • Water Temperature
  • Satellite Maps
  • Weather Map
  • Weather Widgets
  • user-avatar
    Login

    Hourly Weather Popkowice

    Today, 21 September, Friday

    Time Temperature Precipitation Wind Pressure Humidity
    00:00 +18°C° 0 mm 2 mps 746 mmHg 65%
    01:00 +17°C° 0 mm 2 mps 746 mmHg 67%
    02:00 +17°C° 0 mm 2 mps 746 mmHg 69%
    03:00 +16°C° 0 mm 2 mps 745 mmHg 71%
    04:00 +16°C° 0 mm 2 mps 745 mmHg 73%
    05:00 +17°C° 0 mm 2 mps 745 mmHg 72%
    06:00 +17°C° 0 mm 2 mps 745 mmHg 70%
    07:00 +18°C° 0 mm 2 mps 745 mmHg 68%
    08:00 +20°C° 0 mm 2 mps 745 mmHg 63%
    09:00 +22°C° 0 mm 3 mps 745 mmHg 57%
    10:00 +25°C° 0 mm 3 mps 745 mmHg 51%
    11:00 +26°C° 0 mm 3 mps 744 mmHg 47%
    12:00 +27°C° 0 mm 4 mps 744 mmHg 43%
    13:00 +28°C° 0 mm 3 mps 743 mmHg 38%
    14:00 +27°C° 0 mm 3 mps 743 mmHg 41%
    15:00 +27°C° 0 mm 3 mps 742 mmHg 44%
    16:00 +27°C° 0 mm 3 mps 742 mmHg 47%
    17:00 +25°C° 0 mm 4 mps 742 mmHg 51%
    18:00 +23°C° 0 mm 4 mps 741 mmHg 55%
    19:00 +21°C° 0 mm 5 mps 741 mmHg 59%
    20:00 +21°C° 0 mm 5 mps 741 mmHg 59%
    21:00 +20°C° 0 mm 5 mps 741 mmHg 59%
    22:00 +20°C° 0 mm 5 mps 740 mmHg 59%
    23:00 +20°C° 0 mm 5 mps 740 mmHg 60%

    Tomorrow, 22 September, Saturday

    Time Temperature Precipitation Wind Pressure Humidity
    00:00 +19°C° 0 mm 5 mps 740 mmHg 61%
    01:00 +19°C° 0 mm 5 mps 740 mmHg 62%
    02:00 +19°C° 0.2 mm 5 mps 740 mmHg 64%
    03:00 +17°C° 0.2 mm 5 mps 741 mmHg 67%
    04:00 +17°C° 0.2 mm 6 mps 741 mmHg 69%
    05:00 +16°C° 0.5 mm 6 mps 742 mmHg 74%
    06:00 +15°C° 0.5 mm 5 mps 743 mmHg 79%
    07:00 +13°C° 0.5 mm 5 mps 744 mmHg 83%
    08:00 +14°C° 0.1 mm 5 mps 745 mmHg 79%
    09:00 +14°C° 0.1 mm 4 mps 745 mmHg 75%
    10:00 +14°C° 0.1 mm 4 mps 746 mmHg 70%
    11:00 +14°C° 0 mm 4 mps 746 mmHg 68%
    12:00 +14°C° 0 mm 4 mps 746 mmHg 65%
    13:00 +14°C° 0 mm 4 mps 746 mmHg 62%
    14:00 +16°C° 0 mm 3 mps 746 mmHg 59%
    15:00 +16°C° 0 mm 3 mps 745 mmHg 56%
    16:00 +17°C° 0 mm 3 mps 745 mmHg 53%
    17:00 +16°C° 0 mm 3 mps 745 mmHg 57%
    18:00 +14°C° 0 mm 3 mps 745 mmHg 61%
    19:00 +12°C° 0 mm 3 mps 745 mmHg 65%
    20:00 +12°C° 0 mm 3 mps 745 mmHg 67%
    21:00 +11°C° 0 mm 3 mps 746 mmHg 68%
    22:00 +12°C° 0 mm 2 mps 746 mmHg 70%
    23:00 +11°C° 0 mm 3 mps 746 mmHg 69%

    Day after tomorrow, 23 September, Sunday

    Time Temperature Precipitation Wind Pressure Humidity
    00:00 +10°C° 0 mm 3 mps 746 mmHg 69%
    01:00 +10°C° 0 mm 3 mps 746 mmHg 69%
    02:00 +10°C° 0 mm 3 mps 745 mmHg 69%
    03:00 +10°C° 0 mm 3 mps 745 mmHg 70%
    04:00 +10°C° 0 mm 3 mps 745 mmHg 71%
    05:00 +10°C° 0 mm 3 mps 745 mmHg 69%
    06:00 +11°C° 0 mm 4 mps 745 mmHg 68%
    07:00 +11°C° 0 mm 4 mps 745 mmHg 67%
    08:00 +13°C° 0 mm 4 mps 745 mmHg 62%
    09:00 +14°C° 0 mm 4 mps 745 mmHg 58%
    10:00 +16°C° 0 mm 5 mps 745 mmHg 53%
    11:00 +16°C° 0.1 mm 5 mps 744 mmHg 53%
    12:00 +16°C° 0.1 mm 5 mps 744 mmHg 53%
    13:00 +16°C° 0.1 mm 5 mps 744 mmHg 54%
    14:00 +16°C° 0.1 mm 5 mps 744 mmHg 55%
    15:00 +15°C° 0.1 mm 4 mps 743 mmHg 57%
    16:00 +15°C° 0.1 mm 4 mps 743 mmHg 58%
    17:00 +14°C° 0 mm 3 mps 742 mmHg 62%
    18:00 +13°C° 0 mm 3 mps 742 mmHg 66%
    19:00 +13°C° 0 mm 2 mps 741 mmHg 69%
    20:00 +12°C° 0.3 mm 3 mps 740 mmHg 73%
    21:00 +12°C° 0.3 mm 3 mps 739 mmHg 76%
    22:00 +12°C° 0.3 mm 4 mps 738 mmHg 80%
    23:00 +12°C° 1.9 mm 5 mps 736 mmHg 78%

    24 September, Monday

    Time Temperature Precipitation Wind Pressure Humidity
    00:00 +12°C° 1.9 mm 7 mps 734 mmHg 77%
    01:00 +12°C° 1.9 mm 8 mps 732 mmHg 76%
    02:00 +13°C° 2.8 mm 8 mps 731 mmHg 78%
    03:00 +13°C° 2.8 mm 8 mps 730 mmHg 81%
    04:00 +15°C° 2.8 mm 9 mps 728 mmHg 84%
    05:00 +13°C° 0.3 mm 10 mps 729 mmHg 83%
    06:00 +12°C° 0.3 mm 11 mps 730 mmHg 82%
    07:00 +9°C° 0.3 mm 13 mps 731 mmHg 80%
    08:00 +9°C° 0.2 mm 12 mps 733 mmHg 79%
    09:00 +8°C° 0.2 mm 11 mps 735 mmHg 78%
    10:00 +8°C° 0.2 mm 11 mps 737 mmHg 77%
    11:00 +9°C° 0.2 mm 11 mps 739 mmHg 72%
    12:00 +9°C° 0.2 mm 11 mps 740 mmHg 67%
    13:00 +11°C° 0.2 mm 11 mps 741 mmHg 63%
    14:00 +11°C° 0.1 mm 10 mps 741 mmHg 61%
    15:00 +11°C° 0.1 mm 10 mps 742 mmHg 59%
    16:00 +9°C° 0.1 mm 10 mps 742 mmHg 58%
    17:00 +10°C° 0 mm 9 mps 743 mmHg 60%
    18:00 +9°C° 0 mm 8 mps 744 mmHg 62%
    19:00 +8°C° 0 mm 7 mps 744 mmHg 65%
    20:00 +8°C° 0 mm 7 mps 745 mmHg 67%
    21:00 +6°C° 0 mm 7 mps 746 mmHg 68%
    22:00 +6°C° 0 mm 7 mps 746 mmHg 70%
    23:00 +5°C° 0 mm 6 mps 747 mmHg 70%

    25 September, Tuesday

    Time Temperature Precipitation Wind Pressure Humidity
    00:00 +5°C° 0 mm 6 mps 748 mmHg 71%
    01:00 +5°C° 0 mm 6 mps 748 mmHg 71%
    02:00 +4°C° 0 mm 6 mps 749 mmHg 72%
    03:00 +4°C° 0 mm 6 mps 749 mmHg 73%
    04:00 +5°C° 0 mm 5 mps 750 mmHg 75%
    05:00 +4°C° 0 mm 6 mps 750 mmHg 74%
    06:00 +5°C° 0 mm 6 mps 750 mmHg 72%
    07:00 +5°C° 0 mm 6 mps 751 mmHg 71%
    08:00 +6°C° 0 mm 7 mps 751 mmHg 64%
    09:00 +9°C° 0 mm 7 mps 752 mmHg 56%
    10:00 +10°C° 0 mm 7 mps 752 mmHg 49%
    11:00 +10°C° 0.1 mm 7 mps 752 mmHg 47%
    12:00 +11°C° 0.1 mm 7 mps 752 mmHg 46%
    13:00 +11°C° 0.1 mm 7 mps 752 mmHg 44%
    14:00 +11°C° 0 mm 6 mps 752 mmHg 44%
    15:00 +11°C° 0 mm 6 mps 752 mmHg 45%
    16:00 +10°C° 0 mm 5 mps 751 mmHg 45%
    17:00 +10°C° 0 mm 5 mps 751 mmHg 47%
    18:00 +9°C° 0 mm 5 mps 751 mmHg 50%
    19:00 +8°C° 0 mm 5 mps 751 mmHg 53%
    20:00 +8°C° 0.1 mm 5 mps 750 mmHg 56%
    21:00 +8°C° 0.1 mm 6 mps 750 mmHg 59%
    22:00 +8°C° 0.1 mm 7 mps 749 mmHg 62%
    23:00 +6°C° 1 mm 7 mps 749 mmHg 68%

    26 September, Wednesday

    Time Temperature Precipitation Wind Pressure Humidity
    00:00 +6°C° 1 mm 7 mps 748 mmHg 75%
    01:00 +6°C° 1 mm 8 mps 748 mmHg 81%
    02:00 +5°C° 0.3 mm 7 mps 748 mmHg 82%
    03:00 +5°C° 0.3 mm 6 mps 748 mmHg 83%
    04:00 +6°C° 0.3 mm 5 mps 748 mmHg 83%
    05:00 +5°C° 0 mm 6 mps 749 mmHg 82%
    06:00 +5°C° 0 mm 6 mps 749 mmHg 81%
    07:00 +5°C° 0 mm 6 mps 749 mmHg 79%
    08:00 +8°C° 0.1 mm 6 mps 750 mmHg 74%
    09:00 +9°C° 0.1 mm 7 mps 750 mmHg 68%
    10:00 +10°C° 0.1 mm 7 mps 750 mmHg 63%
    11:00 +10°C° 0 mm 7 mps 751 mmHg 62%
    12:00 +11°C° 0 mm 7 mps 751 mmHg 61%
    13:00 +11°C° 0 mm 7 mps 751 mmHg 60%
    14:00 +11°C° 0 mm 6 mps 752 mmHg 61%
    15:00 +12°C° 0 mm 5 mps 752 mmHg 62%
    16:00 +12°C° 0 mm 4 mps 752 mmHg 63%
    17:00 +11°C° 0 mm 4 mps 753 mmHg 67%
    18:00 +10°C° 0 mm 3 mps 753 mmHg 72%
    19:00 +9°C° 0 mm 2 mps 753 mmHg 76%
    20:00 +8°C° 0 mm 2 mps 754 mmHg 76%
    21:00 +8°C° 0 mm 2 mps 754 mmHg 76%
    22:00 +8°C° 0 mm 2 mps 754 mmHg 77%
    23:00 +8°C° 0 mm 2 mps 754 mmHg 78%
    Show more